| time (UTC) | temp F | wind direction | speed knots | gust knots | rain 1hr in | rain 24hr in | rain mn in | humidity % | barometer mb |
| 20260507065217 | 62 | 360 | 0.0 | 0.0 | 0.00 | 0.00 | 0.00 | 21 | 1020.6 |
| 20260507065121 | 63 | 360 | 0.0 | 2.6 | 0.00 | 0.00 | 0.00 | 21 | 1020.6 |
| 20260507064216 | 64 | 115 | 0.0 | 0.9 | 0.00 | 0.00 | 0.00 | 20 | 1020.3 |
| 20260507064117 | 64 | 94 | 0.0 | 0.0 | 0.00 | 0.00 | 0.00 | 20 | 1020.4 |
| 20260507063117 | 65 | 135 | 0.0 | 0.0 | 0.00 | 0.00 | 0.00 | 19 | 1020.4 |
| 20260507062119 | 66 | 270 | 0.9 | 0.9 | 0.00 | 0.00 | 0.00 | 17 | 1020.3 |
| 20260507061217 | 65 | 292 | 0.0 | 1.7 | 0.00 | 0.00 | 0.00 | 18 | 1020.2 |
| 20260507060233 | 67 | 170 | 1.7 | 3.5 | 0.00 | 0.00 | 0.00 | 17 | 1020.0 |
| 20260507055317 | 67 | 247 | 0.0 | 0.9 | 0.00 | 0.00 | 0.00 | 17 | 1020.0 |
| 20260507054334 | 67 | 202 | 2.6 | 3.5 | 0.00 | 0.00 | 0.00 | 17 | 1020.0 |
| 20260507054216 | 67 | 202 | 3.5 | 4.3 | 0.00 | 0.00 | 0.00 | 17 | 1020.0 |
| 20260507053217 | 66 | 192 | 2.6 | 4.3 | 0.00 | 0.00 | 0.00 | 17 | 1020.0 |
| 20260507052217 | 66 | 189 | 3.5 | 4.3 | 0.00 | 0.00 | 0.00 | 18 | 1019.7 |
| 20260507050216 | 68 | 67 | 0.0 | 0.0 | 0.00 | 0.00 | 0.00 | 18 | 1019.7 |
| 20260507045231 | 68 | 208 | 0.0 | 0.0 | 0.00 | 0.00 | 0.00 | 17 | 1019.5 |
| 20260507044316 | 69 | 202 | 1.7 | 2.6 | 0.00 | 0.00 | 0.00 | 17 | 1019.4 |
| 20260507043332 | 68 | 235 | 1.7 | 3.5 | 0.00 | 0.00 | 0.00 | 18 | 1019.2 |
| 20260507042417 | 69 | 305 | 2.6 | 2.6 | 0.00 | 0.00 | 0.00 | 18 | 1019.3 |
| 20260507041515 | 70 | 180 | 0.0 | 0.0 | 0.00 | 0.00 | 0.00 | 17 | 1019.0 |
| 20260507040516 | 71 | 157 | 0.9 | 0.9 | 0.00 | 0.00 | 0.00 | 17 | 1019.0 |
| 20260507034614 | 71 | 237 | 3.5 | 5.2 | 0.00 | 0.00 | 0.00 | 16 | 1018.8 |
| 20260507033617 | 72 | 144 | 2.6 | 4.3 | 0.00 | 0.00 | 0.00 | 15 | 1018.3 |
| 20260507032616 | 73 | 93 | 1.7 | 2.6 | 0.00 | 0.00 | 0.00 | 15 | 1018.2 |
| 20260507030715 | 74 | 123 | 0.9 | 2.6 | 0.00 | 0.00 | 0.00 | 14 | 1018.0 |
| 20260507025733 | 75 | 360 | 0.0 | 0.9 | 0.00 | 0.00 | 0.00 | 14 | 1017.7 |
| 20260507024715 | 75 | 3 | 1.7 | 3.5 | 0.00 | 0.00 | 0.00 | 15 | 1017.7 |
| 20260507024615 | 75 | 22 | 1.7 | 2.6 | 0.00 | 0.00 | 0.00 | 15 | 1017.6 |
| 20260507022716 | 77 | 348 | 2.6 | 5.2 | 0.00 | 0.00 | 0.00 | 14 | 1017.4 |
| 20260507021718 | 78 | 3 | 3.5 | 7.0 | 0.00 | 0.00 | 0.00 | 14 | 1017.2 |
| 20260507020715 | 79 | 3 | 4.3 | 7.8 | 0.00 | 0.00 | 0.00 | 14 | 1017.0 |
| 20260507014731 | 79 | 1 | 4.3 | 7.8 | 0.00 | 0.00 | 0.00 | 13 | 1016.8 |
| 20260507014633 | 79 | 355 | 3.5 | 6.1 | 0.00 | 0.00 | 0.00 | 13 | 1016.8 |
| 20260507013715 | 80 | 342 | 3.5 | 5.2 | 0.00 | 0.00 | 0.00 | 13 | 1016.9 |
| 20260507012732 | 80 | 346 | 4.3 | 7.8 | 0.00 | 0.00 | 0.00 | 13 | 1016.8 |
| 20260507011817 | 81 | 339 | 1.7 | 5.2 | 0.00 | 0.00 | 0.00 | 13 | 1016.7 |
| 20260507010817 | 81 | 6 | 8.7 | 13.9 | 0.00 | 0.00 | 0.00 | 13 | 1016.7 |
| 20260507005818 | 81 | 338 | 8.7 | 17.4 | 0.00 | 0.00 | 0.00 | 13 | 1016.4 |
| 20260507005716 | 81 | 355 | 4.3 | 9.6 | 0.00 | 0.00 | 0.00 | 12 | 1016.6 |
| 20260507003717 | 81 | 301 | 7.0 | 9.6 | 0.00 | 0.00 | 0.00 | 13 | 1016.7 |
| 20260507002734 | 81 | 321 | 7.0 | 10.4 | 0.00 | 0.00 | 0.00 | 13 | 1016.6 |
| 20260507002631 | 81 | 343 | 5.2 | 8.7 | 0.00 | 0.00 | 0.00 | 13 | 1016.5 |
| 20260507001616 | 81 | 3 | 7.8 | 10.4 | 0.00 | 0.00 | 0.00 | 12 | 1016.4 |
| 20260507000616 | 81 | 336 | 8.7 | 13.9 | 0.00 | 0.00 | 0.00 | 12 | 1016.4 |
| 20260506235616 | 81 | 326 | 7.8 | 11.3 | 0.00 | 0.00 | 0.00 | 11 | 1016.3 |
| 20260506234632 | 82 | 359 | 7.8 | 12.2 | 0.00 | 0.00 | 0.00 | 12 | 1016.2 |
| 20260506233717 | 82 | 356 | 8.7 | 15.6 | 0.00 | 0.00 | 0.00 | 12 | 1016.2 |
| 20260506232716 | 81 | 342 | 7.0 | 11.3 | 0.00 | 0.00 | 0.00 | 12 | 1016.2 |
| 20260506231733 | 81 | 360 | 7.0 | 12.2 | 0.00 | 0.00 | 0.00 | 13 | 1016.1 |
| 20260506231633 | 80 | 356 | 11.3 | 18.2 | 0.00 | 0.00 | 0.00 | 13 | 1016.0 |
| 20260506224715 | 81 | 312 | 7.8 | 11.3 | 0.00 | 0.00 | 0.00 | 16 | 1016.2 |
| 20260506223732 | 81 | 317 | 9.6 | 14.8 | 0.00 | 0.00 | 0.00 | 17 | 1016.2 |
| 20260506222715 | 81 | 357 | 5.2 | 10.4 | 0.00 | 0.00 | 0.00 | 16 | 1016.4 |
| 20260506221716 | 81 | 323 | 8.7 | 15.6 | 0.00 | 0.00 | 0.00 | 18 | 1016.3 |
| 20260506215816 | 80 | 323 | 7.8 | 12.2 | 0.00 | 0.00 | 0.00 | 19 | 1016.6 |
| 20260506214833 | 80 | 308 | 12.2 | 20.9 | 0.00 | 0.00 | 0.00 | 19 | 1016.5 |
| 20260506213916 | 81 | 308 | 11.3 | 16.5 | 0.00 | 0.00 | 0.00 | 17 | 1016.5 |
| 20260506213015 | 81 | 338 | 7.0 | 11.3 | 0.00 | 0.00 | 0.00 | 19 | 1016.6 |
| 20260506212016 | 79 | 352 | 8.7 | 13.9 | 0.00 | 0.00 | 0.00 | 20 | 1016.8 |
| 20260506211031 | 80 | 305 | 11.3 | 17.4 | 0.00 | 0.00 | 0.00 | 19 | 1016.9 |
| 20260506204114 | 80 | 323 | 8.7 | 13.9 | 0.00 | 0.00 | 0.00 | 19 | 1017.0 |
| 20260506203116 | 80 | 1 | 7.0 | 12.2 | 0.00 | 0.00 | 0.00 | 19 | 1017.1 |
| 20260506201133 | 79 | 353 | 7.0 | 13.0 | 0.00 | 0.00 | 0.00 | 20 | 1017.2 |
| 20260506195217 | 78 | 1 | 7.0 | 12.2 | 0.00 | 0.00 | 0.00 | 20 | 1017.2 |
| 20260506194214 | 78 | 345 | 7.8 | 13.0 | 0.00 | 0.00 | 0.00 | 21 | 1017.4 |
| 20260506193233 | 78 | 14 | 6.1 | 9.6 | 0.00 | 0.00 | 0.00 | 20 | 1017.4 |
| 20260506192215 | 78 | 32 | 2.6 | 4.3 | 0.00 | 0.00 | 0.00 | 22 | 1017.4 |
| 20260506192116 | 78 | 320 | 2.6 | 4.3 | 0.00 | 0.00 | 0.00 | 21 | 1017.4 |
| 20260506191130 | 78 | 329 | 10.4 | 14.8 | 0.00 | 0.00 | 0.00 | 22 | 1017.1 |
| 20260506190215 | 78 | 11 | 7.0 | 13.0 | 0.00 | 0.00 | 0.00 | 22 | 1017.3 |
| 20260506185216 | 78 | 106 | 3.5 | 4.3 | 0.00 | 0.00 | 0.00 | 23 | 1017.4 |
| 20260506183232 | 76 | 281 | 5.2 | 7.8 | 0.00 | 0.00 | 0.00 | 24 | 1017.4 |
| 20260506182216 | 76 | 294 | 4.3 | 9.6 | 0.00 | 0.00 | 0.00 | 25 | 1017.7 |
| 20260506181231 | 76 | 295 | 2.6 | 5.2 | 0.00 | 0.00 | 0.00 | 24 | 1017.7 |
| 20260506180215 | 76 | 17 | 5.2 | 9.6 | 0.00 | 0.00 | 0.00 | 24 | 1017.6 |
| 20260506175215 | 75 | 333 | 4.3 | 8.7 | 0.00 | 0.00 | 0.00 | 25 | 1017.7 |
| 20260506174231 | 74 | 354 | 6.1 | 11.3 | 0.00 | 0.00 | 0.00 | 26 | 1017.6 |
| 20260506171233 | 72 | 343 | 5.2 | 8.7 | 0.00 | 0.00 | 0.00 | 27 | 1018.0 |
| 20260506170315 | 71 | 315 | 0.0 | 2.6 | 0.00 | 0.00 | 0.00 | 27 | 1017.9 |
| 20260506165316 | 70 | 261 | 6.1 | 10.4 | 0.00 | 0.00 | 0.00 | 27 | 1017.9 |
| 20260506164315 | 70 | 263 | 3.5 | 7.8 | 0.00 | 0.00 | 0.00 | 27 | 1018.1 |
| 20260506162330 | 69 | 277 | 5.2 | 8.7 | 0.00 | 0.00 | 0.00 | 28 | 1018.2 |
| 20260506161414 | 68 | 280 | 3.5 | 6.1 | 0.00 | 0.00 | 0.00 | 27 | 1018.2 |
| 20260506161331 | 68 | 300 | 3.5 | 6.1 | 0.00 | 0.00 | 0.00 | 26 | 1018.2 |
| 20260506160415 | 69 | 283 | 5.2 | 8.7 | 0.00 | 0.00 | 0.00 | 27 | 1018.4 |
| 20260506154514 | 67 | 246 | 1.7 | 3.5 | 0.00 | 0.00 | 0.00 | 27 | 1018.4 |
| 20260506153530 | 68 | 271 | 2.6 | 4.3 | 0.00 | 0.00 | 0.00 | 27 | 1018.4 |
| 20260506153416 | 68 | 276 | 3.5 | 5.2 | 0.00 | 0.00 | 0.00 | 28 | 1018.5 |
| 20260506151416 | 67 | 298 | 0.0 | 1.7 | 0.00 | 0.00 | 0.00 | 29 | 1018.5 |
| 20260506150415 | 67 | 349 | 0.9 | 2.6 | 0.00 | 0.00 | 0.00 | 29 | 1018.5 |
| 20260506145514 | 65 | 337 | 0.0 | 1.7 | 0.00 | 0.00 | 0.00 | 31 | 1018.5 |
| 20260506144516 | 63 | 319 | 1.7 | 3.5 | 0.00 | 0.00 | 0.00 | 32 | 1018.5 |
| 20260506143515 | 62 | 297 | 3.5 | 4.3 | 0.00 | 0.00 | 0.00 | 34 | 1018.4 |
| 20260506142614 | 61 | 284 | 3.5 | 4.3 | 0.00 | 0.00 | 0.00 | 35 | 1018.2 |
| 20260506141615 | 60 | 307 | 4.3 | 5.2 | 0.00 | 0.00 | 0.00 | 36 | 1018.2 |
| 20260506140614 | 59 | 316 | 0.9 | 1.7 | 0.00 | 0.00 | 0.00 | 37 | 1018.0 |
| 20260506140531 | 59 | 335 | 0.9 | 2.6 | 0.00 | 0.00 | 0.00 | 37 | 1017.9 |
| 20260506135613 | 58 | 318 | 3.5 | 5.2 | 0.00 | 0.00 | 0.00 | 37 | 1018.0 |
| 20260506135530 | 58 | 314 | 4.3 | 6.1 | 0.00 | 0.00 | 0.00 | 37 | 1017.9 |
| 20260506133515 | 57 | 329 | 2.6 | 4.3 | 0.00 | 0.00 | 0.00 | 38 | 1017.6 |
| 20260506132515 | 57 | 354 | 2.6 | 6.1 | 0.00 | 0.00 | 0.00 | 38 | 1017.4 |
| 20260506131432 | 56 | 326 | 1.7 | 5.2 | 0.00 | 0.00 | 0.00 | 40 | 1017.2 |
| 20260506130416 | 56 | 360 | 2.6 | 3.5 | 0.00 | 0.00 | 0.00 | 40 | 1017.0 |
| 20260506125415 | 56 | 351 | 0.9 | 1.7 | 0.00 | 0.00 | 0.00 | 40 | 1016.8 |
| 20260506123515 | 56 | 360 | 2.6 | 3.5 | 0.00 | 0.00 | 0.00 | 38 | 1016.6 |
| 20260506122530 | 57 | 292 | 0.0 | 0.0 | 0.00 | 0.00 | 0.00 | 37 | 1016.5 |
| 20260506121532 | 58 | 292 | 1.7 | 2.6 | 0.00 | 0.00 | 0.00 | 34 | 1016.4 |
| 20260506120616 | 59 | 315 | 0.0 | 0.0 | 0.00 | 0.00 | 0.00 | 34 | 1016.3 |
| 20260506114629 | 59 | 315 | 0.0 | 0.0 | 0.00 | 0.00 | 0.00 | 34 | 1016.2 |
| 20260506113615 | 60 | 292 | 2.6 | 2.6 | 0.00 | 0.00 | 0.00 | 34 | 1016.0 |
| 20260506112616 | 60 | 292 | 1.7 | 3.5 | 0.00 | 0.00 | 0.00 | 33 | 1015.9 |
| 20260506111616 | 60 | 13 | 1.7 | 3.5 | 0.00 | 0.00 | 0.00 | 33 | 1015.9 |
| 20260506110615 | 59 | 341 | 2.6 | 4.3 | 0.00 | 0.00 | 0.00 | 34 | 1015.6 |
| 20260506105715 | 59 | 292 | 0.0 | 0.0 | 0.00 | 0.00 | 0.00 | 34 | 1015.5 |
| 20260506104715 | 60 | 292 | 0.0 | 2.6 | 0.00 | 0.00 | 0.00 | 33 | 1015.4 |
| 20260506103814 | 60 | 316 | 0.9 | 2.6 | 0.00 | 0.00 | 0.00 | 32 | 1015.4 |
| 20260506103731 | 60 | 315 | 1.7 | 1.7 | 0.00 | 0.00 | 0.00 | 32 | 1015.4 |
| 20260506102714 | 61 | 4 | 2.6 | 4.3 | 0.00 | 0.00 | 0.00 | 32 | 1015.4 |
| 20260506101715 | 61 | 10 | 1.7 | 4.3 | 0.00 | 0.00 | 0.00 | 32 | 1015.4 |
| 20260506100731 | 61 | 352 | 2.6 | 3.5 | 0.00 | 0.00 | 0.00 | 32 | 1015.1 |
| 20260506095730 | 62 | 328 | 1.7 | 2.6 | 0.00 | 0.00 | 0.00 | 31 | 1015.2 |
| 20260506093814 | 63 | 311 | 1.7 | 3.5 | 0.00 | 0.00 | 0.00 | 30 | 1015.1 |
| 20260506092729 | 63 | 311 | 4.3 | 7.0 | 0.00 | 0.00 | 0.00 | 29 | 1014.9 |
| 20260506091814 | 64 | 357 | 2.6 | 5.2 | 0.00 | 0.00 | 0.00 | 29 | 1014.9 |
| 20260506090816 | 63 | 314 | 1.7 | 4.3 | 0.00 | 0.00 | 0.00 | 28 | 1014.7 |
| 20260506085816 | 64 | 315 | 0.0 | 1.7 | 0.00 | 0.00 | 0.00 | 29 | 1014.7 |
| 20260506084915 | 64 | 325 | 2.6 | 4.3 | 0.00 | 0.00 | 0.00 | 28 | 1014.7 |
| 20260506082116 | 64 | 2 | 2.6 | 3.5 | 0.00 | 0.00 | 0.00 | 28 | 1014.5 |
| 20260506082014 | 64 | 311 | 1.7 | 4.3 | 0.00 | 0.00 | 0.00 | 28 | 1014.5 |
| 20260506081032 | 65 | 309 | 4.3 | 6.1 | 0.00 | 0.00 | 0.00 | 28 | 1014.4 |
| 20260506073215 | 64 | 292 | 2.6 | 4.3 | 0.00 | 0.00 | 0.00 | 28 | 1014.3 |
| 20260506072229 | 63 | 292 | 0.0 | 0.0 | 0.00 | 0.00 | 0.00 | 30 | 1014.4 |
| 20260506071215 | 64 | 247 | 0.0 | 0.0 | 0.00 | 0.00 | 0.00 | 29 | 1014.5 |
| 20260506070215 | 65 | 247 | 0.0 | 0.0 | 0.00 | 0.00 | 0.00 | 27 | 1014.2 |